Lid_Strength_Index
2 3 3 2 3 2 2 3 3 3 3 3 3 3 2 2 2 3 5 2 0 -4 -2 1 1 1 1 3 2 3 8 9 8 8 8 5 6 4 3 5 4 4 4 3 2
2 3 3 3 3 3 2 2 3 3 3 3 3 3 2 2 3 4 -1 -3 -3 -4 2 2 3 2 3 3 4 5 8 8 6 5 6 5 5 5 5 5 6 5 3 2 2
3 2 3 3 3 3 3 3 2 3 3 3 3 2 2 2 3 3 -3 -3 -3 -1 2 1 2 2 4 4 4 4 7 5 5 5 4 5 5 4 5 7 6 6 5 3 3
3 3 3 3 3 3 3 3 3 3 3 3 3 2 1 2 7 1 -4 -4 -3 1 1 2 2 4 5 5 4 6 4 5 4 4 5 5 4 5 5 5 4 4 3 3 3
3 3 3 3 3 3 3 3 3 3 3 3 2 2 2 4 4 0 -2 -1 1 1 2 3 3 4 5 4 4 5 5 4 4 4 4 4 5 6 5 4 3 3 3 3 3
3 3 3 3 3 3 3 3 3 3 3 2 2 1 2 5 0 -0 -0 1 1 1 2 2 3 3 4 4 5 4 4 4 4 4 4 5 6 5 5 4 4 4 4 3 3
3 3 3 3 3 3 3 4 3 3 3 2 1 1 3 4 1 -0 -0 2 0 1 2 1 2 3 3 5 3 4 6 5 5 4 6 5 8 7 4 4 4 4 4 3 3
3 3 3 3 3 3 3 4 4 3 3 2 1 2 4 1 1 1 -0 2 0 0 1 1 1 3 3 3 4 5 6 8 5 5 5 6 11 6 4 5 5 4 4 4 3
3 3 3 3 3 3 4 4 3 2 2 1 2 3 5 2 3 2 0 2 1 1 1 1 2 4 4 5 7 6 9 8 7 4 6 6 9 6 4 5 5 5 4 4 3
3 3 3 3 4 4 4 4 1 3 2 1 2 4 3 4 3 2 0 1 2 2 3 3 4 5 5 6 10 9 9 7 8 6 5 7 8 6 5 5 5 5 4 4 4
3 3 3 3 4 4 4 2 4 5 3 5 5 5 4 3 2 3 1 2 2 3 6 4 6 8 6 6 6 7 7 7 6 5 6 6 8 7 5 5 5 5 5 4 4
3 3 3 4 4 4 4 4 3 3 6 3 4 4 4 2 4 2 1 4 4 6 5 6 7 5 5 5 6 6 7 7 6 5 6 6 7 6 5 5 5 5 5 4 4
3 3 4 4 4 4 3 3 1 2 6 5 4 5 5 3 5 4 2 3 5 6 6 7 6 5 6 6 7 7 7 7 7 6 5 6 7 8 6 5 4 4 4 4 4
3 4 4 5 4 1 3 1 2 2 8 7 5 5 5 4 6 3 2 3 4 6 6 6 5 6 6 7 6 8 6 6 7 7 10 6 11 7 7 6 5 5 4 4 4
3 4 4 5 4 3 1 1 1 2 12 6 5 3 4 6 5 5 2 3 5 6 5 7 6 6 7 6 5 7 5 6 6 7 8 8 9 11 9 11 9 5 4 4 4
3 4 4 2 2 2 0 1 2 8 11 7 5 6 6 6 5 4 4 3 3 5 5 6 4 5 6 5 5 5 6 6 6 7 11 8 9 12 12 11 8 6 4 4 4
3 4 4 2 2 -1 0 2 8 10 6 7 7 6 6 7 6 5 5 6 7 8 8 6 7 5 5 6 5 6 7 10 11 13 12 8 9 10 8 8 8 6 5 4 5
4 5 3 2 -0 -1 1 5 11 8 7 5 6 6 7 6 6 6 6 7 5 6 8 9 10 6 5 6 7 7 7 10 14 13 12 8 13 10 6 6 5 5 4 4 4
5 0 1 -0 -1 -0 4 9 9 7 6 6 6 7 7 6 6 6 6 7 6 5 8 8 9 5 5 5 5 7 9 6 9 9 11 10 10 8 7 6 5 5 5 5 4
3 1 2 -1 -1 1 5 9 6 6 5 5 8 7 8 7 7 7 7 6 6 5 5 7 9 6 6 5 5 6 6 9 8 12 12 12 13 14 12 10 7 6 6 5 4
2 4 1 -0 0 4 7 7 6 4 4 6 7 7 7 7 7 7 7 6 5 5 5 7 7 7 6 7 7 7 8 7 8 9 12 16 14 8 10 8 9 6 5 5 4
2 6 1 1 5 5 6 5 7 5 4 5 5 6 6 6 7 7 7 6 4 5 6 6 7 9 8 5 5 6 7 7 9 10 10 10 11 7 7 7 8 8 5 4 4
4 4 1 2 7 6 5 5 5 5 5 5 6 5 5 6 7 6 6 5 4 5 6 6 7 10 9 7 6 7 6 6 7 8 11 12 14 8 7 6 6 6 5 6 5
4 7 4 3 3 5 6 6 6 4 5 4 5 5 6 6 5 7 6 5 4 5 4 5 7 9 12 9 7 8 7 7 7 12 12 12 14 11 9 6 6 5 5 5 5
4 6 5 7 6 5 5 5 6 6 4 4 5 6 6 7 7 7 6 5 5 4 5 6 9 9 10 8 7 8 9 8 8 7 11 12 13 11 9 7 6 5 5 5 5
5 6 5 6 4 5 6 6 6 6 5 6 6 5 5 7 6 7 6 6 6 5 5 6 8 8 10 8 7 9 8 8 7 7 7 10 12 7 6 5 5 6 5 5 5
2 3 4 7 5 6 6 6 6 5 4 4 5 5 6 5 4 4 4 4 5 5 6 7 7 8 10 7 8 10 7 7 7 6 7 10 9 6 7 6 6 6 5 5 5